User: anonymous   Login
Location: *
(48.8489°N, 2.3218°E)
Time: 06:26:44
(UTC+00:00)
Language:

ADEOS Rocket - Orbit

View from above orbital plane
View from above orbital plane
View from above satellite
View from above satellite

Ground track
Ground track

The orbit data is extracted from the following two-line orbital elements,

1 24279U 96046C   19293.39901766 -.00000026 +00000-0 +15381-4 0  9995
2 24279 098.7010 141.1987 0299074 268.8776 143.1666 13.47132210139113
Epoch (UTC): 20 October 2019 09:34:35
Eccentricity: 0.0299074
inclination: 98.7010°
perigee height: 859 km
apogee height: 1306 km
right ascension of ascending node: 141.1987°
argument of perigee: 268.8776°
revolutions per day: 13.47132210
mean anomaly at epoch: 143.1666°
orbit number at epoch: 13911

The dashed part of the orbit path shows where the satellite is in the earth's shadow,  

DLR